FW6490 Weather Reports


time (UTC)temp
F
wind
direction
speed
knots
gust
knots
rain 1hr
in
rain 24hr
in
rain mn
in
humidity
%
barometer
mb
20260504100454 48 278 0.0 2.6 0.00 0.00 0.00 93 1009.6
20260504081913 47 278 0.0 0.0 0.00 0.00 0.00 91 1010.3
20260504081412 47 278 0.0 0.0 0.00 0.00 0.00 91 1010.3
20260504080908 47 278 0.0 0.0 0.00 0.00 0.00 91 1010.3
20260504080407 47 278 0.0 0.0 0.00 0.00 0.00 91 1010.3
20260504070342 48 278 0.0 0.0 0.00 0.00 0.00 90 1010.4
20260504050248 52 278 0.0 0.0 0.00 0.00 0.00 85 1010.2
20260504045745 52 278 0.0 0.0 0.00 0.00 0.00 85 1010.0
20260504045245 52 278 0.0 0.0 0.00 0.00 0.00 85 1010.0
20260504043738 52 278 0.0 2.6 0.00 0.00 0.00 85 1010.0
20260504043230 52 278 0.9 2.6 0.00 0.00 0.00 85 1010.0
20260504042728 52 278 0.9 2.6 0.00 0.00 0.00 84 1009.7
20260504042228 52 278 0.9 1.7 0.00 0.00 0.00 84 1009.7
20260504041725 52 278 0.9 1.7 0.00 0.00 0.00 84 1009.7
20260504041220 52 278 0.0 1.7 0.00 0.00 0.00 83 1009.5
20260504040719 53 278 0.9 1.7 0.00 0.00 0.00 83 1009.5
20260504040215 53 278 0.9 1.7 0.00 0.00 0.00 82 1009.5
20260504034710 54 278 0.9 3.5 0.00 0.00 0.00 79 1009.5
20260504034205 54 278 0.9 3.5 0.00 0.00 0.00 78 1009.3
20260504033704 55 278 0.0 0.9 0.00 0.00 0.00 78 1009.3
20260504032200 56 278 0.0 1.7 0.00 0.00 0.00 76 1009.2
20260504031658 56 278 0.9 2.6 0.00 0.00 0.00 76 1009.2
20260504031157 56 278 1.7 2.6 0.00 0.00 0.00 76 1009.1
20260504030657 57 278 1.7 2.6 0.00 0.00 0.00 75 1009.1
20260504030156 57 278 0.9 3.5 0.00 0.00 0.00 75 1009.1
20260504025652 57 279 0.9 3.5 0.00 0.00 0.00 75 1009.0
20260504024148 58 279 0.9 2.6 0.00 0.00 0.00 73 1009.0
20260504023648 58 279 0.9 5.2 0.00 0.00 0.00 72 1009.0
20260504023143 59 279 0.9 5.2 0.00 0.00 0.00 71 1009.0
20260504022642 59 278 0.9 6.1 0.00 0.00 0.00 70 1008.7
20260504022140 60 282 0.9 6.1 0.00 0.00 0.00 68 1008.7
20260504021638 61 326 0.9 3.5 0.00 0.00 0.00 67 1008.7
20260504020636 61 288 0.9 2.6 0.00 0.00 0.00 65 1008.5
20260504020131 62 286 0.9 2.6 0.00 0.00 0.00 65 1008.5
20260504015629 62 285 1.7 5.2 0.00 0.00 0.00 64 1008.5
20260504014123 63 320 1.7 6.1 0.00 0.00 0.00 62 1008.5
20260504013624 63 320 1.7 6.1 0.00 0.00 0.00 62 1008.5
20260504013126 63 302 1.7 7.0 0.00 0.00 0.00 62 1008.5
20260504012118 63 279 2.6 7.8 0.00 0.00 0.00 62 1008.4
20260504011618 63 275 3.5 7.8 0.00 0.00 0.00 61 1008.4
20260504011116 63 346 3.5 9.6 0.00 0.00 0.00 61 1008.4
20260504010117 63 250 4.3 10.4 0.00 0.00 0.00 60 1008.4
20260504005616 63 303 4.3 9.6 0.00 0.00 0.00 60 1008.2
20260504005119 63 297 4.3 9.6 0.00 0.00 0.00 59 1008.2
20260504004623 64 277 3.5 8.7 0.00 0.00 0.00 60 1008.3
20260504004113 64 269 3.5 10.4 0.00 0.00 0.00 60 1008.1
20260504003612 64 303 4.3 10.4 0.00 0.00 0.00 60 1008.1
20260504003108 64 315 5.2 9.6 0.00 0.00 0.00 60 1008.1
20260504002604 64 306 4.3 8.7 0.00 0.00 0.00 59 1008.1
20260504001603 65 314 4.3 10.4 0.00 0.00 0.00 57 1008.1
20260504001103 65 289 4.3 10.4 0.00 0.00 0.00 56 1008.1
20260503235058 66 313 5.2 8.7 0.00 0.00 0.00 54 1008.0
20260503234556 66 336 5.2 9.6 0.00 0.00 0.00 53 1008.0
20260503234054 66 299 5.2 9.6 0.00 0.00 0.00 53 1007.9
20260503233555 66 316 5.2 9.6 0.00 0.00 0.00 52 1007.9
20260503233050 67 308 5.2 13.0 0.00 0.00 0.00 51 1007.9
20260503232549 66 321 5.2 13.0 0.00 0.00 0.00 53 1007.7
20260503232048 67 298 5.2 9.6 0.00 0.00 0.00 51 1007.7
20260503231547 67 315 6.1 11.3 0.00 0.00 0.00 52 1007.7
20260503231045 67 298 5.2 11.3 0.00 0.00 0.00 50 1007.6
20260503230550 68 311 4.3 10.4 0.00 0.00 0.00 51 1007.6
20260503230050 67 298 4.3 10.4 0.00 0.00 0.00 53 1007.6
20260503225543 67 334 3.5 8.7 0.00 0.00 0.00 53 1007.8
20260503224536 67 268 4.3 10.4 0.00 0.00 0.00 53 1007.8
20260503224035 67 327 3.5 10.4 0.00 0.00 0.00 53 1007.9
20260503223535 67 346 3.5 7.8 0.00 0.00 0.00 53 1007.9
20260503223035 67 325 3.5 7.8 0.00 0.00 0.00 52 1007.9
20260503222535 67 329 3.5 7.8 0.00 0.00 0.00 52 1008.0
20260503222030 67 300 3.5 9.6 0.00 0.00 0.00 54 1008.0
20260503221535 67 329 3.5 9.6 0.00 0.00 0.00 53 1008.0
20260503221034 68 13 3.5 7.8 0.00 0.00 0.00 52 1008.1
20260503220531 68 322 3.5 7.0 0.00 0.00 0.00 52 1008.1
20260503220030 67 342 2.6 7.0 0.00 0.00 0.00 54 1008.1
20260503215522 66 324 2.6 7.0 0.00 0.00 0.00 54 1008.1
20260503214523 65 317 3.5 9.6 0.00 0.00 0.00 56 1008.1
20260503214022 65 342 4.3 9.6 0.00 0.00 0.00 56 1008.1
20260503213519 65 313 3.5 7.8 0.00 0.00 0.00 55 1008.1
20260503213018 66 329 3.5 7.8 0.00 0.00 0.00 56 1008.1
20260503212016 66 355 3.5 7.8 0.00 0.00 0.00 56 1008.1
20260503211011 66 28 2.6 8.7 0.00 0.00 0.00 58 1008.1
20260503210512 66 33 2.6 7.0 0.00 0.00 0.00 58 1008.1
20260503210011 65 17 2.6 7.0 0.00 0.00 0.00 59 1008.1
20260503205508 65 275 3.5 7.0 0.00 0.00 0.00 58 1008.3
20260503204504 65 309 3.5 6.1 0.00 0.00 0.00 57 1008.3
20260503203456 65 327 3.5 9.6 0.00 0.00 0.00 58 1008.5
20260503202957 65 317 3.5 9.6 0.00 0.00 0.00 57 1008.5
20260503202456 66 330 2.6 6.1 0.00 0.00 0.00 59 1008.6
20260503201958 65 313 3.5 7.8 0.00 0.00 0.00 59 1008.6
20260503201459 65 311 3.5 7.8 0.00 0.00 0.00 59 1008.6
20260503200955 66 44 3.5 7.0 0.00 0.00 0.00 58 1008.5
20260503200452 67 327 2.6 6.1 0.00 0.00 0.00 57 1008.5
20260503195952 67 327 2.6 7.0 0.00 0.00 0.00 55 1008.5
20260503194951 67 330 2.6 7.0 0.00 0.00 0.00 56 1008.6
20260503194449 67 315 4.3 7.0 0.00 0.00 0.00 54 1008.6
20260503193944 67 259 3.5 7.8 0.00 0.00 0.00 54 1008.6
20260503193442 68 318 2.6 7.8 0.00 0.00 0.00 54 1008.6
20260503192946 68 329 2.6 6.1 0.00 0.00 0.00 55 1008.6
20260503192438 67 345 2.6 5.2 0.00 0.00 0.00 56 1008.9
20260503191937 66 38 2.6 7.0 0.00 0.00 0.00 57 1008.9
20260503191433 66 337 2.6 7.0 0.00 0.00 0.00 59 1008.9
20260503190929 66 333 2.6 7.8 0.00 0.00 0.00 59 1008.9
20260503190427 66 5 3.5 7.8 0.00 0.00 0.00 59 1008.9
20260503185925 66 322 3.5 7.0 0.00 0.00 0.00 57 1008.9
20260503185425 67 327 2.6 6.1 0.00 0.00 0.00 57 1008.9
20260503184919 67 339 2.6 7.8 0.00 0.00 0.00 56 1008.9
20260503184419 67 10 2.6 7.8 0.00 0.00 0.00 57 1008.9
20260503183922 66 17 2.6 5.2 0.00 0.00 0.00 58 1009.1
20260503183420 65 321 2.6 5.2 0.00 0.00 0.00 58 1009.1
20260503182913 65 257 2.6 5.2 0.00 0.00 0.00 59 1009.1
20260503182410 65 280 1.7 5.2 0.00 0.00 0.00 61 1009.2
20260503181910 65 290 1.7 5.2 0.00 0.00 0.00 63 1009.2
20260503181409 65 290 1.7 5.2 0.00 0.00 0.00 62 1009.2
20260503180909 65 289 1.7 5.2 0.00 0.00 0.00 64 1009.2
20260503175908 63 279 1.7 6.1 0.00 0.00 0.00 68 1009.1
20260503175408 63 313 1.7 5.2 0.00 0.00 0.00 67 1009.1
20260503174907 64 313 1.7 5.2 0.00 0.00 0.00 65 1009.1
20260503174410 63 289 1.7 4.3 0.00 0.00 0.00 68 1009.1
20260503173901 63 288 1.7 6.1 0.00 0.00 0.00 67 1009.1
20260503173401 63 355 2.6 6.1 0.00 0.00 0.00 70 1009.1
20260503172857 62 54 2.6 7.0 0.00 0.00 0.00 73 1009.1
20260503172357 62 338 2.6 7.0 0.00 0.00 0.00 73 1009.1
20260503171857 61 325 2.6 5.2 0.00 0.00 0.00 74 1009.1
20260503171356 61 327 2.6 6.1 0.00 0.00 0.00 76 1009.0
20260503170356 60 320 1.7 5.2 0.00 0.00 0.00 80 1009.0
20260503150328 56 61 0.9 2.6 0.00 0.00 0.00 85 1008.3
20260503131251 53 293 0.0 0.9 0.00 0.00 0.00 86 1007.3
20260503120221 54 293 0.0 0.9 0.00 0.00 0.00 84 1006.8
20260503110657 54 293 0.9 2.6 0.00 0.00 0.00 82 1006.9